Location: Ostrava
(49.8330°N, 18.2830°E)
Time: 13:18:12
(UTC+01:00)

X-37B - Visible Passes

Search period start: 26 January 2022 00:00
Search period end: 05 February 2022 00:00
Orbit: 334 x 337 km, 45.0° (Epoch: 11 January)

Date Brightness Start Highest point End Pass type
(mag) Time Alt. Az. Time Alt. Az. Time Alt. Az.
27 Jan 3.2 18:39:30 10° SSW 18:39:47 11° S 18:39:47 11° S visible
28 Jan 3.3 18:58:59 10° SW 18:59:29 13° SSW 18:59:29 13° SSW visible
29 Jan 2.7 17:44:57 10° S 17:46:33 14° SSE 17:47:54 11° SE visible
29 Jan 3.7 19:18:59 10° WSW 19:19:08 11° SW 19:19:08 11° SW visible
30 Jan 2.1 18:04:25 10° SW 18:06:43 22° SSE 18:07:32 19° SE visible
31 Jan 1.6 18:24:25 10° SW 18:26:56 29° S 18:27:08 28° SSE visible
01 Feb 2.0 18:44:39 10° WSW 18:46:43 28° SSW 18:46:43 28° SSW visible
02 Feb 1.8 17:29:51 10° SW 17:32:22 28° S 17:34:53 10° ESE visible
02 Feb 2.8 19:05:01 10° WSW 19:06:20 19° SW 19:06:20 19° SW visible
03 Feb 1.8 17:50:05 10° WSW 17:52:38 30° S 17:54:45 13° ESE visible
03 Feb 3.7 19:25:39 10° WSW 19:25:59 12° WSW 19:25:59 12° WSW visible
04 Feb 2.1 18:10:28 10° WSW 18:12:53 25° SSW 18:14:27 16° SE visible
